Weather Roundup
Issued by NWS Chicago, IL

Home | Current Version | Previous Version | Text Only | Print | Product List | Glossary Off
Versions: 1 2 3 4 5 6 7 8 9 10 11 12 13 14 15 16 17 18 19 20 21 22 23 24 25 26 27 28 29 30 31 32 33 34 35 36 37 38 39 40 41 42 43 44 45 46 47 48 49 50

000
NZUS59 KLOT 221909
HRRLOT

CHICAGO AREA WEATHER ROUNDUP
NATIONAL WEATHER SERVICE CHICAGO/ROMEOVILLE IL
200 PM CDT SUN OCT 22 2017

NOTE: "FAIR" INDICATES FEW OR NO CLOUDS BELOW 12,000 FEET WITH NO
SIGNIFICANT WEATHER AND/OR OBSTRUCTIONS TO VISIBILITY.

* THESE STATIONS ARE NOT UNDER NWS QUALITY CONTROL. THEY ALSO MAY NOT
  REPORT WEATHER SUCH AS PRECIPITATION OR FOG.

ILZ005-006-012>014-019>023-222000-
NORTHEAST ILLINOIS

CITY           SKY/WX    TMP DP  RH WIND       PRES   REMARKS
OHARE          CLOUDY    69  61  75 S10       29.90F
MIDWAY         CLOUDY    72  61  68 S16G28    29.91S
AURORA         LGT RAIN  55  54  96 NW17G26   29.96R FOG
LANSING*       CLOUDY    70  63  77 S20       29.94S
JOLIET*        RAIN      69  65  86 SW12G24   29.92R
WAUKEGAN       CLOUDY    61  59  93 NW17G25   29.93R
DUPAGE AIRPORT LGT RAIN  58  58 100 NW18G28   29.93R FOG
WHEELING       CLOUDY    70  63  78 S7        29.92S
KANKAKEE*      CLOUDY    70  60  70 S16G23    29.95S
MORRIS*        RAIN      57  56  95 NW17G23   29.93R
LEWIS AIRPORT* DRIZZLE  N/A N/A N/A SW14G28   29.92R
NORTHERLY ISL    N/A     70  59  68 SE10        N/A
$$

WIZ051-052-058>065-066-070>072-222000-
SOUTHEAST WISCONSIN

CITY           SKY/WX    TMP DP  RH WIND       PRES   REMARKS
MILWAUKEE      LGT RAIN  54  51  90 NW18G31   29.96R
KENOSHA*       RAIN      55  53  93 NW16G24   29.95R FOG
RACINE*        RAIN      55  54  96 N16G22    29.98R FOG
BURLINGTON     LGT RAIN  50  50 100 N13G24    29.98R
WAUKESHA       CLOUDY    48  46  93 NW12      29.99R
WEST BEND      CLOUDY    50  48  93 NW12      29.97S
$$

INZ001>003-010>013-019-020-222000-
NORTHWEST INDIANA

CITY           SKY/WX    TMP DP  RH WIND       PRES   REMARKS
GARY*          CLOUDY    73  59  60 S9        29.93F
MICHIGAN CITY* NOT AVBL
RENSSELAER*    NOT AVBL
VALPARAISO     PTSUNNY   73  60  63 S14G35    29.96F
$$

LMZ740>746-222000-
SOUTHERN LAKE MICHIGAN

STATION/POSITION TIME  SKY/WX   TEMP WIND        PRES    VSBY
                                AIR  DIR/SP/G
                 (UTC)          (F)  (DEG/KT/KT) (MB)    (MI)
HARRISON CRIB    1810            67  170/ 19/ 21   N/A
BURNHAM HARBOR   1900            71  160/ 16/ 17   N/A
CALUMET HARBOR   1842            71  180/ 14/ 18 1012.4F
BURNS HARBOR     1840            72  190/ 18/ 26 1013.9F
MICHIGAN CITY    1840            72  170/ 18/ 23   N/A
$$

ABBREVIATIONS USED IN REMARKS
   TC - TEMPERATURE IN CELSIUS
  WCI - WIND CHILL INDEX
   HX - HEAT INDEX
  VSB - VISIBILITY
$$




USA.gov is the U.S. government's official web portal to all federal, state and local government web resources and services.